SCP
0 0 0 0 0 0 0 0 0 0 0 0 0 0 0 0 0 0 0 0 0 0 0 0 0 0 0 0 0 0 0 0 0 0 0 0 0 0 0 0 0 0 0
0 0 0 0 0 0 0 0 0 0 0 0 0 0 0 0 0 0 0 0 0 0 0 0 0 0 0 0 0 0 0 0 0 0 0 0 0 0 0 0 0 0 0
0 0 0 0 0 0 0 0 0 0 0 0 0 0 0 0 0 0 0 0 0 0 0 0 0 0 0 0 0 0 0 0 0 0 0 0 0 0 0 0 0 0 0
0 0 0 0 0 0 0 0 0 0 0 0 0 0 0 0 0 0 0 0 0 0 0 0 0 0 0 0 0 0 0 0 0 0 0 0 0 0 0 0 0 0 0
0 0 0 0 0 0 0 0 0 0 0 0 0 0 0 0 0 0 0 0 0 0 0 0 0 0 0 0 0 0 0 0 0 0 0 0 0 0 0 0 0 0 0
0 0 0 0 0 0 0 0 0 0 0 0 0 0 0 0 0 0 0 0 0 0 0 0 0 0 0 0 0 0 0 0 0 0 0 0 0 0 0 0 0 -0 -0
0 0 0 0 0 0 0 0 0 0 0 0 0 0 0 0 0 0 0 0 0 0 0 0 0 0 0 0 0 0 0 0 0 0 0 0 0 0 0 0 0 -0 -0
0 0 0 0 0 0 0 0 0 0 0 0 0 0 0 0 0 0 0 0 0 0 0 0 0 0 0 0 0 0 0 0 0 0 0 0 0 0 0 0 0 0 -0
0 0 0 0 0 0 0 0 0 0 0 0 0 0 0 0 0 0 0 0 0 0 0 0 0 0 0 0 0 0 0 0 0 0 0 0 0 0 0 0 0 0 -0
0 0 0 0 0 0 0 0 0 0 0 0 0 0 0 0 0 0 0 0 0 0 0 0 0 0 0 0 0 0 0 0 0 0 0 0 0 0 0 0 0 0 0
0 0 0 0 0 0 0 0 0 0 0 0 0 0 0 0 0 0 0 0 0 0 0 0 0 0 0 0 0 0 0 0 0 0 0 0 0 0 0 0 0 0 0
0 0 0 0 0 0 0 0 0 0 0 0 0 0 0 0 0 0 0 0 0 0 0 0 0 0 0 0 0 0 0 0 0 0 0 0 0 0 0 0 0 0 0
0 0 0 0 0 0 0 0 0 0 0 0 0 0 0 0 0 0 0 0 0 0 0 0 0 0 0 0 0 0 0 0 0 0 0 0 0 0 0 0 0 0 0
0 0 0 0 0 0 0 0 0 0 0 0 0 0 0 0 0 0 0 0 0 0 0 0 0 0 0 0 0 0 0 0 0 0 0 0 0 0 0 0 0 0 0
0 0 0 0 0 0 0 0 0 0 0 0 0 0 0 0 0 0 0 0 0 0 0 0 0 0 0 0 0 0 0 0 0 0 0 0 0 0 0 0 0 0 0
0 0 0 0 0 0 0 0 0 0 0 0 0 0 0 0 0 0 0 0 0 0 0 0 0 0 0 0 0 0 0 0 0 0 0 0 0 0 0 0 0 0 0
0 0 0 0 0 0 0 0 0 0 0 0 0 0 0 0 0 0 0 0 0 0 0 0 0 0 0 0 0 0 0 0 0 0 0 0 0 0 0 0 0 0 0
0 0 0 0 0 0 0 0 0 0 0 0 0 0 0 0 0 0 0 0 0 0 0 0 0 0 0 0 0 0 0 0 0 0 0 0 0 0 0 0 0 0 0
0 0 0 0 0 0 0 0 0 0 0 0 0 0 0 0 0 0 0 0 0 0 0 0 0 0 0 0 0 0 0 0 0 0 0 0 0 0 0 0 0 0 0
0 0 0 0 0 0 0 0 0 0 0 0 0 0 0 0 0 0 0 0 0 0 0 0 0 0 0 0 0 0 0 0 0 0 0 0 0 0 0 0 0 0 0
0 0 0 0 0 0 0 0 0 0 0 0 0 0 0 0 0 0 0 0 0 0 0 0 0 0 0 0 0 0 0 0 0 0 0 0 0 0 0 0 0 0 0
0 0 0 0 0 0 0 0 0 0 0 0 0 0 0 0 0 0 0 0 0 0 0 0 0 0 0 0 0 0 0 0 0 0 0 0 0 0 0 0 0 0 0
0 0 0 0 0 0 0 0 0 0 0 0 0 0 0 0 0 0 0 0 0 0 0 0 0 0 0 0 0 0 0 0 0 0 0 0 0 0 0 0 0 0 0
0 0 0 0 0 0 0 0 0 0 0 0 0 0 0 0 0 0 0 0 0 0 0 0 0 0 0 0 0 0 0 0 0 0 0 0 0 0 0 0 0 0 0
0 0 0 0 0 0 0 0 0 0 0 0 0 0 0 0 0 0 0 0 0 0 0 0 0 0 0 0 0 0 0 0 0 0 0 0 0 0 0 0 0 0 0
0 0 0 0 0 0 0 0 0 0 0 0 0 0 0 0 0 0 0 0 0 0 0 0 0 0 0 0 0 0 0 0 0 0 0 0 0 0 0 0 0 0 0
Wind_Speed_500mb
35 24 20 22 22 22 25 30 32 33 33 35 35 33 31 29 27 23 20 19 17 15 12 9 8 6 5 10 12 14 18 22 25 21 19 13 12 12 18 16 22 24 28
36 28 27 30 31 32 35 38 41 44 43 35 33 36 33 31 28 28 27 24 20 18 14 11 11 11 13 13 14 16 20 24 30 30 17 6 6 7 11 16 24 37 40
41 34 37 40 38 39 42 46 47 43 40 37 34 34 35 36 35 33 30 26 20 16 13 11 11 12 13 16 19 21 24 28 29 32 23 9 9 41 13 28 29 50 48
42 42 43 46 48 49 48 45 43 40 38 38 41 41 38 36 32 28 23 18 15 12 11 12 12 14 17 18 22 25 27 27 30 28 27 23 22 14 29 43 52 56 59
54 52 52 52 55 52 51 51 51 51 52 51 44 37 33 29 27 23 19 15 13 10 10 11 14 16 19 23 26 28 32 34 33 34 31 28 24 19 37 51 73 70 64
58 55 55 56 58 60 59 59 58 56 51 45 39 33 29 28 26 22 16 12 10 7 7 11 14 18 21 23 28 31 32 34 34 31 30 32 32 33 37 51 66 72 76
68 65 67 66 66 66 65 63 59 56 50 43 37 33 31 27 23 19 14 9 7 6 5 9 11 14 20 23 25 27 30 31 31 32 30 30 31 35 40 47 57 70 82
73 75 72 73 72 71 69 67 63 57 52 44 40 35 31 28 24 18 14 9 6 2 2 6 10 13 16 20 22 24 25 26 27 28 29 30 33 37 42 47 54 73 75
74 75 74 76 77 76 74 70 66 59 51 45 40 36 32 29 25 20 16 13 8 4 4 6 9 12 15 18 22 25 27 27 27 28 28 32 34 37 41 43 46 45 54
74 77 80 82 80 76 73 70 65 58 52 47 43 38 35 31 28 24 20 17 13 9 9 10 10 12 15 20 23 25 26 27 27 29 30 33 36 38 42 45 48 46 46
82 84 86 87 84 80 79 76 71 66 58 51 47 42 37 35 32 27 24 20 17 15 14 13 11 13 16 20 24 27 29 30 31 32 34 36 40 43 46 49 52 56 56
85 85 87 89 87 87 84 80 77 71 61 55 50 45 42 38 35 31 29 25 25 21 20 15 11 13 18 22 27 29 31 34 36 37 39 42 44 46 49 53 57 62 64
75 80 83 91 95 93 90 87 81 74 66 59 53 48 45 41 39 37 34 33 30 26 22 19 15 15 18 22 27 31 34 38 40 42 43 45 47 49 52 56 61 64 68
78 80 83 90 94 96 94 90 85 79 71 65 56 53 47 44 43 40 40 38 35 31 27 24 22 21 21 24 28 31 35 39 42 45 47 48 50 52 55 59 61 67 71
79 87 89 91 92 93 92 90 86 81 74 67 59 53 49 47 46 47 47 44 40 36 34 32 29 29 26 29 30 32 36 41 44 47 50 52 53 54 57 60 62 65 69
83 85 84 83 86 89 91 91 88 84 75 69 62 57 54 52 52 53 50 48 45 43 42 41 38 36 37 36 34 37 39 43 47 52 53 54 55 55 57 59 59 57 56
73 77 80 80 78 80 82 85 82 77 74 69 62 58 56 56 56 56 53 52 51 49 48 48 46 45 43 43 42 43 46 49 53 54 55 56 56 57 58 61 59 61 64
55 58 62 60 64 68 68 70 68 71 70 63 58 55 56 55 57 56 54 53 54 54 53 53 54 53 48 47 48 48 52 55 56 56 56 58 57 56 59 59 63 67 70
30 19 20 33 50 64 70 63 61 64 60 56 52 49 52 57 56 55 53 54 55 57 57 58 58 55 52 52 52 54 58 59 59 59 57 57 58 55 53 47 61 70 77
29 43 51 55 53 53 61 61 58 54 50 45 38 41 46 49 50 49 51 53 55 56 59 61 60 58 56 53 55 58 61 63 62 62 61 60 57 50 38 45 56 73 71
48 44 41 43 39 39 45 48 43 38 29 29 32 32 32 33 37 42 48 51 53 55 58 60 62 61 58 57 58 60 62 63 63 63 63 59 54 46 40 40 57 61 54
42 40 40 41 36 32 30 29 27 23 27 30 30 28 28 34 41 43 45 47 48 50 54 60 62 63 62 61 61 59 59 61 65 65 62 59 52 40 41 48 60 49 52
43 42 39 36 31 26 22 22 21 26 30 35 36 32 34 38 42 45 48 50 53 56 57 59 62 63 62 63 61 62 60 58 59 61 60 47 47 56 62 61 52 52 51
44 40 35 29 23 21 22 24 28 33 38 43 45 40 39 41 44 48 54 60 62 62 62 60 61 60 62 65 64 61 60 60 60 58 57 55 56 59 62 64 51 46 45
36 31 28 25 21 24 27 30 33 37 47 54 54 52 48 47 49 52 57 60 60 60 59 58 59 63 66 62 63 68 70 64 57 52 61 62 63 66 65 57 48 45 42
33 27 25 24 25 27 32 36 40 43 48 58 60 56 55 55 57 59 60 60 60 58 57 57 63 64 65 66 67 59 51 46 45 56 69 70 72 69 64 54 48 45 45
Wind_Direction_500mb
224 222 209 191 184 165 153 148 145 147 152 162 169 170 166 170 172 168 158 149 143 136 135 124 109 94 56 39 32 8 1 355 1 5 54 66 334 10 3 335 323 328 340
215 207 194 184 181 172 155 150 152 155 162 164 166 171 176 169 163 148 141 134 129 125 119 101 82 64 46 41 30 18 9 5 3 12 29 5 305 331 353 331 334 332 329
208 198 189 186 181 174 168 166 170 169 169 173 177 173 163 154 147 141 137 129 122 112 99 82 62 47 32 22 20 17 12 17 15 14 24 19 339 326 265 313 313 326 327
204 199 189 186 184 180 178 176 173 173 170 164 162 162 156 153 147 143 135 126 111 93 76 62 50 35 27 19 16 16 14 12 16 19 30 27 360 336 320 316 326 326 331
199 196 192 189 188 184 180 174 170 165 160 160 161 160 161 162 158 153 146 132 111 87 63 48 36 29 26 26 23 18 14 14 12 13 11 8 6 341 329 328 330 328 335
192 195 189 188 181 179 175 170 167 165 166 166 165 168 173 172 169 162 154 143 128 106 62 36 22 19 18 13 9 5 1 2 2 3 5 3 2 352 345 331 334 332 334
188 191 190 184 179 176 174 172 172 172 171 171 172 174 178 177 173 169 159 153 132 95 37 12 3 1 359 354 350 347 345 343 344 346 350 351 348 346 342 338 333 331 331
189 195 191 185 181 179 178 179 179 180 179 180 182 182 182 186 187 183 179 176 170 146 359 356 349 347 339 338 339 339 337 333 336 338 338 339 339 340 340 339 336 332 328
188 196 192 188 186 185 185 185 185 186 186 187 188 188 191 196 197 192 191 195 200 220 266 297 304 316 329 332 336 337 333 329 332 329 331 332 333 334 331 333 330 327 317
188 198 195 193 192 191 190 190 192 193 193 192 194 197 199 198 201 201 204 207 215 229 250 268 286 310 328 336 335 332 328 325 324 324 329 328 327 328 327 329 327 323 316
192 199 198 198 197 196 197 197 197 199 197 196 198 201 203 206 205 208 212 217 222 231 248 257 282 307 327 333 333 331 328 323 321 323 323 323 324 326 326 326 325 322 318
197 200 200 201 201 203 203 203 204 204 203 203 203 202 205 208 211 215 219 223 230 236 242 253 274 309 323 330 332 330 327 323 321 319 318 320 321 321 321 322 322 320 318
197 200 202 205 206 208 208 209 209 208 207 208 208 207 210 212 217 222 225 228 231 235 241 251 270 293 312 318 324 329 326 322 319 316 314 314 312 314 317 318 318 317 315
196 201 205 209 212 213 213 212 213 213 212 212 213 217 219 220 223 227 230 231 234 239 242 251 267 281 292 307 314 319 321 320 316 311 309 307 308 311 313 313 315 316 317
195 203 207 211 214 216 218 217 218 218 216 217 219 224 226 226 229 232 233 234 239 241 246 254 263 271 284 293 299 306 313 315 314 310 308 306 305 307 309 313 315 315 316
201 205 209 211 215 219 220 220 220 220 219 222 225 228 230 231 234 238 238 239 241 245 251 258 264 272 279 283 289 298 303 308 312 310 307 304 304 305 307 309 312 315 313
206 208 210 214 217 222 224 223 221 221 225 226 228 232 234 236 239 242 242 242 245 250 256 261 268 272 274 281 285 292 300 307 309 309 306 304 304 304 306 309 313 314 317
210 215 216 217 223 225 229 229 224 226 227 230 232 234 237 241 241 242 243 245 249 255 261 265 269 272 276 280 282 288 296 302 307 308 305 303 303 304 306 312 317 313 308
206 217 242 243 243 232 227 228 223 223 226 230 236 239 243 243 242 244 247 249 253 260 266 269 270 274 277 279 282 286 293 299 305 304 301 299 301 304 310 309 302 302 306
242 262 244 230 228 221 222 222 220 222 227 233 241 244 244 244 246 249 251 255 258 264 267 270 274 276 277 278 280 284 291 297 301 300 298 298 301 300 293 297 297 303 313
226 214 209 210 209 206 205 209 215 221 233 233 235 235 236 239 244 249 252 256 260 263 268 272 274 275 277 277 278 281 287 295 296 294 295 295 296 295 291 290 298 306 311
187 187 184 185 186 185 192 203 217 226 224 225 226 226 235 247 247 249 252 254 258 264 270 272 274 275 276 277 279 282 286 290 291 293 293 293 294 289 284 297 308 306 302
176 173 176 177 180 189 203 221 229 230 234 230 224 232 247 248 250 251 255 258 261 263 267 271 275 277 277 278 279 283 286 290 290 289 289 293 283 282 290 301 307 305 308
173 175 177 186 196 211 224 232 234 235 234 228 231 241 247 252 256 260 262 262 262 264 266 270 275 279 279 280 284 286 287 287 285 287 284 278 283 291 299 303 304 304 309
181 191 200 206 214 222 231 244 249 247 240 236 238 243 250 255 259 264 266 265 264 264 266 271 275 278 281 285 284 285 287 288 285 287 288 286 287 291 296 299 300 304 309
196 207 215 227 231 235 241 249 255 255 249 244 245 251 257 262 266 267 266 263 263 265 270 276 280 280 281 280 282 283 275 272 269 273 270 276 282 288 294 294 298 302 307
Wind_Speed_850mb
35 24 20 22 22 22 25 30 32 33 33 35 35 33 31 29 27 23 20 19 17 15 12 9 8 6 5 10 12 14 18 22 25 21 19 13 12 12 18 16 22 24 28
36 28 27 30 31 32 35 38 41 44 43 35 33 36 33 31 28 28 27 24 20 18 14 11 11 11 13 13 14 16 20 24 30 30 17 6 6 7 11 16 24 37 40
41 34 37 40 38 39 42 46 47 43 40 37 34 34 35 36 35 33 30 26 20 16 13 11 11 12 13 16 19 21 24 28 29 32 23 9 9 41 13 28 29 50 48
42 42 43 46 48 49 48 45 43 40 38 38 41 41 38 36 32 28 23 18 15 12 11 12 12 14 17 18 22 25 27 27 30 28 27 23 22 14 29 43 52 56 59
54 52 52 52 55 52 51 51 51 51 52 51 44 37 33 29 27 23 19 15 13 10 10 11 14 16 19 23 26 28 32 34 33 34 31 28 24 19 37 51 73 70 64
58 55 55 56 58 60 59 59 58 56 51 45 39 33 29 28 26 22 16 12 10 7 7 11 14 18 21 23 28 31 32 34 34 31 30 32 32 33 37 51 66 72 76
68 65 67 66 66 66 65 63 59 56 50 43 37 33 31 27 23 19 14 9 7 6 5 9 11 14 20 23 25 27 30 31 31 32 30 30 31 35 40 47 57 70 82
73 75 72 73 72 71 69 67 63 57 52 44 40 35 31 28 24 18 14 9 6 2 2 6 10 13 16 20 22 24 25 26 27 28 29 30 33 37 42 47 54 73 75
74 75 74 76 77 76 74 70 66 59 51 45 40 36 32 29 25 20 16 13 8 4 4 6 9 12 15 18 22 25 27 27 27 28 28 32 34 37 41 43 46 45 54
74 77 80 82 80 76 73 70 65 58 52 47 43 38 35 31 28 24 20 17 13 9 9 10 10 12 15 20 23 25 26 27 27 29 30 33 36 38 42 45 48 46 46
82 84 86 87 84 80 79 76 71 66 58 51 47 42 37 35 32 27 24 20 17 15 14 13 11 13 16 20 24 27 29 30 31 32 34 36 40 43 46 49 52 56 56
85 85 87 89 87 87 84 80 77 71 61 55 50 45 42 38 35 31 29 25 25 21 20 15 11 13 18 22 27 29 31 34 36 37 39 42 44 46 49 53 57 62 64
75 80 83 91 95 93 90 87 81 74 66 59 53 48 45 41 39 37 34 33 30 26 22 19 15 15 18 22 27 31 34 38 40 42 43 45 47 49 52 56 61 64 68
78 80 83 90 94 96 94 90 85 79 71 65 56 53 47 44 43 40 40 38 35 31 27 24 22 21 21 24 28 31 35 39 42 45 47 48 50 52 55 59 61 67 71
79 87 89 91 92 93 92 90 86 81 74 67 59 53 49 47 46 47 47 44 40 36 34 32 29 29 26 29 30 32 36 41 44 47 50 52 53 54 57 60 62 65 69
83 85 84 83 86 89 91 91 88 84 75 69 62 57 54 52 52 53 50 48 45 43 42 41 38 36 37 36 34 37 39 43 47 52 53 54 55 55 57 59 59 57 56
73 77 80 80 78 80 82 85 82 77 74 69 62 58 56 56 56 56 53 52 51 49 48 48 46 45 43 43 42 43 46 49 53 54 55 56 56 57 58 61 59 61 64
55 58 62 60 64 68 68 70 68 71 70 63 58 55 56 55 57 56 54 53 54 54 53 53 54 53 48 47 48 48 52 55 56 56 56 58 57 56 59 59 63 67 70
30 19 20 33 50 64 70 63 61 64 60 56 52 49 52 57 56 55 53 54 55 57 57 58 58 55 52 52 52 54 58 59 59 59 57 57 58 55 53 47 61 70 77
29 43 51 55 53 53 61 61 58 54 50 45 38 41 46 49 50 49 51 53 55 56 59 61 60 58 56 53 55 58 61 63 62 62 61 60 57 50 38 45 56 73 71
48 44 41 43 39 39 45 48 43 38 29 29 32 32 32 33 37 42 48 51 53 55 58 60 62 61 58 57 58 60 62 63 63 63 63 59 54 46 40 40 57 61 54
42 40 40 41 36 32 30 29 27 23 27 30 30 28 28 34 41 43 45 47 48 50 54 60 62 63 62 61 61 59 59 61 65 65 62 59 52 40 41 48 60 49 52
43 42 39 36 31 26 22 22 21 26 30 35 36 32 34 38 42 45 48 50 53 56 57 59 62 63 62 63 61 62 60 58 59 61 60 47 47 56 62 61 52 52 51
44 40 35 29 23 21 22 24 28 33 38 43 45 40 39 41 44 48 54 60 62 62 62 60 61 60 62 65 64 61 60 60 60 58 57 55 56 59 62 64 51 46 45
36 31 28 25 21 24 27 30 33 37 47 54 54 52 48 47 49 52 57 60 60 60 59 58 59 63 66 62 63 68 70 64 57 52 61 62 63 66 65 57 48 45 42
33 27 25 24 25 27 32 36 40 43 48 58 60 56 55 55 57 59 60 60 60 58 57 57 63 64 65 66 67 59 51 46 45 56 69 70 72 69 64 54 48 45 45
Wind_Direction_850mb
224 222 209 191 184 165 153 148 145 147 152 162 169 170 166 170 172 168 158 149 143 136 135 124 109 94 56 39 32 8 1 355 1 5 54 66 334 10 3 335 323 328 340
215 207 194 184 181 172 155 150 152 155 162 164 166 171 176 169 163 148 141 134 129 125 119 101 82 64 46 41 30 18 9 5 3 12 29 5 305 331 353 331 334 332 329
208 198 189 186 181 174 168 166 170 169 169 173 177 173 163 154 147 141 137 129 122 112 99 82 62 47 32 22 20 17 12 17 15 14 24 19 339 326 265 313 313 326 327
204 199 189 186 184 180 178 176 173 173 170 164 162 162 156 153 147 143 135 126 111 93 76 62 50 35 27 19 16 16 14 12 16 19 30 27 360 336 320 316 326 326 331
199 196 192 189 188 184 180 174 170 165 160 160 161 160 161 162 158 153 146 132 111 87 63 48 36 29 26 26 23 18 14 14 12 13 11 8 6 341 329 328 330 328 335
192 195 189 188 181 179 175 170 167 165 166 166 165 168 173 172 169 162 154 143 128 106 62 36 22 19 18 13 9 5 1 2 2 3 5 3 2 352 345 331 334 332 334
188 191 190 184 179 176 174 172 172 172 171 171 172 174 178 177 173 169 159 153 132 95 37 12 3 1 359 354 350 347 345 343 344 346 350 351 348 346 342 338 333 331 331
189 195 191 185 181 179 178 179 179 180 179 180 182 182 182 186 187 183 179 176 170 146 359 356 349 347 339 338 339 339 337 333 336 338 338 339 339 340 340 339 336 332 328
188 196 192 188 186 185 185 185 185 186 186 187 188 188 191 196 197 192 191 195 200 220 266 297 304 316 329 332 336 337 333 329 332 329 331 332 333 334 331 333 330 327 317
188 198 195 193 192 191 190 190 192 193 193 192 194 197 199 198 201 201 204 207 215 229 250 268 286 310 328 336 335 332 328 325 324 324 329 328 327 328 327 329 327 323 316
192 199 198 198 197 196 197 197 197 199 197 196 198 201 203 206 205 208 212 217 222 231 248 257 282 307 327 333 333 331 328 323 321 323 323 323 324 326 326 326 325 322 318
197 200 200 201 201 203 203 203 204 204 203 203 203 202 205 208 211 215 219 223 230 236 242 253 274 309 323 330 332 330 327 323 321 319 318 320 321 321 321 322 322 320 318
197 200 202 205 206 208 208 209 209 208 207 208 208 207 210 212 217 222 225 228 231 235 241 251 270 293 312 318 324 329 326 322 319 316 314 314 312 314 317 318 318 317 315
196 201 205 209 212 213 213 212 213 213 212 212 213 217 219 220 223 227 230 231 234 239 242 251 267 281 292 307 314 319 321 320 316 311 309 307 308 311 313 313 315 316 317
195 203 207 211 214 216 218 217 218 218 216 217 219 224 226 226 229 232 233 234 239 241 246 254 263 271 284 293 299 306 313 315 314 310 308 306 305 307 309 313 315 315 316
201 205 209 211 215 219 220 220 220 220 219 222 225 228 230 231 234 238 238 239 241 245 251 258 264 272 279 283 289 298 303 308 312 310 307 304 304 305 307 309 312 315 313
206 208 210 214 217 222 224 223 221 221 225 226 228 232 234 236 239 242 242 242 245 250 256 261 268 272 274 281 285 292 300 307 309 309 306 304 304 304 306 309 313 314 317
210 215 216 217 223 225 229 229 224 226 227 230 232 234 237 241 241 242 243 245 249 255 261 265 269 272 276 280 282 288 296 302 307 308 305 303 303 304 306 312 317 313 308
206 217 242 243 243 232 227 228 223 223 226 230 236 239 243 243 242 244 247 249 253 260 266 269 270 274 277 279 282 286 293 299 305 304 301 299 301 304 310 309 302 302 306
242 262 244 230 228 221 222 222 220 222 227 233 241 244 244 244 246 249 251 255 258 264 267 270 274 276 277 278 280 284 291 297 301 300 298 298 301 300 293 297 297 303 313
226 214 209 210 209 206 205 209 215 221 233 233 235 235 236 239 244 249 252 256 260 263 268 272 274 275 277 277 278 281 287 295 296 294 295 295 296 295 291 290 298 306 311
187 187 184 185 186 185 192 203 217 226 224 225 226 226 235 247 247 249 252 254 258 264 270 272 274 275 276 277 279 282 286 290 291 293 293 293 294 289 284 297 308 306 302
176 173 176 177 180 189 203 221 229 230 234 230 224 232 247 248 250 251 255 258 261 263 267 271 275 277 277 278 279 283 286 290 290 289 289 293 283 282 290 301 307 305 308
173 175 177 186 196 211 224 232 234 235 234 228 231 241 247 252 256 260 262 262 262 264 266 270 275 279 279 280 284 286 287 287 285 287 284 278 283 291 299 303 304 304 309
181 191 200 206 214 222 231 244 249 247 240 236 238 243 250 255 259 264 266 265 264 264 266 271 275 278 281 285 284 285 287 288 285 287 288 286 287 291 296 299 300 304 309
196 207 215 227 231 235 241 249 255 255 249 244 245 251 257 262 266 267 266 263 263 265 270 276 280 280 281 280 282 283 275 272 269 273 270 276 282 288 294 294 298 302 307